Date,TemperatureHighF,TemperatureAvgF,TemperatureLowF,DewpointHighF,DewpointAvgF,DewpointLowF,HumidityHigh,HumidityAvg,HumidityLow,PressureMaxIn,PressureMinIn,WindSpeedMaxMPH,WindSpeedAvgMPH,GustSpeedMaxMPH,PrecipitationSumIn
2013-10-1,67.0,63.4,61.0,62.0,60.3,59.0,93,90,85,30.11,30.06,0,0,0,0.00
2013-10-2,84.0,70.2,58.0,69.0,63.9,57.0,96,82,57,30.17,30.06,4,1,0,0.00
2013-10-3,78.0,70.6,65.0,70.0,66.4,63.0,96,87,69,30.12,30.06,5,1,0,0.00
2013-10-4,85.0,71.5,60.0,68.0,64.6,59.0,97,80,53,30.16,30.08,5,1,0,0.00
2013-10-5,87.0,73.2,63.0,69.0,65.7,61.0,96,79,52,30.11,29.98,5,1,0,0.00
2013-10-6,83.0,69.9,54.0,67.0,63.0,52.0,94,80,54,29.98,29.77,9,4,0,0.00
2013-10-7,65.0,55.2,46.0,54.0,48.4,44.0,95,80,48,30.18,29.89,9,2,0,0.00
2013-10-8,69.0,53.4,38.0,51.0,44.8,36.0,96,76,45,30.29,30.18,9,2,0,0.00
2013-10-9,75.0,57.1,41.0,56.0,48.4,39.0,97,76,46,30.26,30.17,5,1,0,0.00
2013-10-10,74.0,56.5,42.0,54.0,47.5,40.0,96,76,38,30.22,30.11,3,0,0,0.00
2013-10-11,78.0,58.5,44.0,57.0,50.1,42.0,96,78,45,30.14,30.04,5,1,0,0.00
2013-10-12,79.0,62.1,48.0,61.0,54.5,46.0,96,79,49,30.16,30.05,4,1,0,0.00
2013-10-13,79.0,63.2,52.0,62.0,55.2,-99.9,96,79,47,30.28,30.16,6,1,0,0.00
2013-10-14,76.0,64.5,58.0,62.0,59.1,57.0,95,84,58,30.31,30.16,4,1,0,0.00
2013-10-15,74.0,66.7,59.0,64.0,61.2,57.0,95,83,65,30.19,29.99,7,1,0,0.00
2013-10-16,66.0,63.8,61.0,63.0,61.0,59.0,95,91,84,30.01,29.96,4,0,0,0.00
2013-10-17,61.0,54.8,45.0,60.0,52.5,43.0,95,92,79,30.05,29.90,8,2,0,0.00
2013-10-18,64.0,51.4,41.0,53.0,45.4,40.0,96,82,49,30.14,30.01,4,1,0,0.00
2013-10-19,57.0,47.1,39.0,51.0,44.4,37.0,96,90,77,30.10,29.91,10,2,0,0.00
2013-10-20,62.0,45.5,34.0,46.0,36.2,-99.9,96,76,39,30.17,30.09,5,1,0,0.00
2013-10-21,69.0,49.7,35.0,46.0,39.2,33.0,96,73,32,30.14,29.99,8,2,0,0.00
2013-10-22,57.0,48.4,42.0,49.0,39.3,33.0,92,73,41,30.11,29.89,9,1,0,0.00
2013-10-23,48.0,43.7,34.0,46.0,38.9,31.0,94,83,67,30.13,29.79,14,5,0,0.00
2013-10-24,47.0,41.0,33.0,39.0,34.3,31.0,92,77,58,30.35,30.12,10,3,0,0.00
2013-10-25,48.0,39.3,29.0,32.0,28.7,26.0,92,68,43,30.54,30.35,5,2,0,0.00
2013-10-26,55.0,39.1,24.0,35.0,28.2,22.0,94,69,37,30.41,30.08,10,2,0,0.00
2013-10-27,63.0,43.5,34.0,46.0,36.2,-99.9,93,80,53,30.16,30.08,6,0,0,0.00
2013-10-28,60.0,52.1,45.0,56.0,48.8,-99.9,95,92,88,30.30,30.14,2,0,0,0.00
2013-10-29,64.0,57.2,52.0,58.0,54.1,50.0,96,90,76,30.37,30.23,3,0,0,0.00
2013-10-30,71.0,62.5,57.0,65.0,60.1,55.0,96,92,80,30.24,30.10,6,1,0,0.00
2013-10-31,73.0,66.7,62.0,63.0,58.3,56.0,94,75,65,30.10,29.54,12,5,0,0.00